New Bedford, MA

1:01 PM EST on December 14, 2017 (GMT -0500)
New Bedford Regional

Weather History for KEWB - March, 2013

Change the Weather History Date:

Saturday, March 23, 2013

  Actual Average Record
Temperature  
Mean Temperature 38 °F -  
Max Temperature 45 °F 47 °F 72 °F (2012)
Min Temperature 30 °F 32 °F 15 °F (2004)
Degree Days  
Heating Degree Days 28    
Moisture  
Dew Point 19 °F    
Average Humidity 50    
Maximum Humidity 70    
Minimum Humidity 32    
Precipitation  
Precipitation 0.00 in - - ()
Sea Level Pressure  
Sea Level Pressure 29.73 in    
Wind  
Wind Speed 12 mph (WNW)    
Max Wind Speed 23 mph    
Max Gust Speed 32 mph    
Visibility 10 miles    
Events      
Averages and records for this station are not official NWS values.
T = Trace of Precipitation, MM = Missing Value Source: NWS Daily Summary

Daily Weather History Graph

Daily Weather History Graph

Search for Another Location

Airport or City:

Trip Planner

Search our weather history database for the weather conditions in past years. The results will help you decide how hot, cold, wet, or windy it might be!

Date:

Astronomy

Mar. 23, 2013 Rise Set
Actual Time 6:41 AM EDT 6:59 PM EDT
Civil Twilight 6:13 AM EDT 7:27 PM EDT
Nautical Twilight 5:41 AM EDT 8:00 PM EDT
Astronomical Twilight 5:08 AM EDT 8:33 PM EDT
Moon 3:20 PM EDT (3/23) 4:19 AM EDT (3/23)
Length of Visible Light 13h 13m
Length of Day
12h 17m
Waxing Gibbous, 85% of the Moon is Illuminated
Mar 23
Waxing Gibbous
Mar 27
Full
Apr 3
Last Quarter
Apr 10
New
Apr 18
First Quarter

Hourly Weather History & Observations

Time (EDT) Temp. Windchill Dew Point Humidity Pressure Visibility Wind Dir Wind Speed Gust Speed Precip Events Conditions
12:53 AM 32.0 °F 23.6 °F 19.0 °F 59% 29.76 in 10.0 mi WNW 10.4 mph 20.7 mph N/A   Clear
1:53 AM 32.0 °F 22.5 °F 19.0 °F 59% 29.76 in 10.0 mi WNW 12.7 mph - N/A   Clear
2:53 AM 30.9 °F 22.2 °F 18.0 °F 59% 29.76 in 10.0 mi West 10.4 mph - N/A   Clear
3:53 AM 30.9 °F 23.5 °F 19.9 °F 64% 29.75 in 10.0 mi WNW 8.1 mph - N/A   Clear
4:53 AM 30.9 °F 22.8 °F 19.9 °F 64% 29.74 in 10.0 mi West 9.2 mph - N/A   Clear
5:53 AM 30.9 °F 22.8 °F 21.0 °F 67% 29.74 in 10.0 mi West 9.2 mph - N/A   Clear
6:53 AM 32.0 °F 24.2 °F 21.9 °F 66% 29.75 in 10.0 mi West 9.2 mph - N/A   Clear
7:53 AM 33.1 °F 27.7 °F 24.1 °F 70% 29.74 in 10.0 mi WSW 5.8 mph - N/A   Clear
8:53 AM 35.1 °F 25.9 °F 24.1 °F 64% 29.72 in 10.0 mi West 13.8 mph 25.3 mph N/A   Clear
9:53 AM 37.9 °F 30.0 °F 21.9 °F 53% 29.71 in 10.0 mi WNW 12.7 mph 29.9 mph N/A   Mostly Cloudy
10:53 AM 39.0 °F 31.4 °F 19.0 °F 45% 29.70 in 10.0 mi WNW 12.7 mph 21.9 mph N/A   Mostly Cloudy
11:53 AM 39.9 °F 30.2 °F 19.0 °F 43% 29.70 in 10.0 mi WNW 20.7 mph 28.8 mph N/A   Mostly Cloudy
12:53 PM 44.1 °F 35.9 °F 19.0 °F 37% 29.69 in 10.0 mi West 19.6 mph 32.2 mph N/A   Scattered Clouds
1:53 PM 44.1 °F 37.1 °F 17.1 °F 34% 29.68 in 10.0 mi West 15.0 mph 29.9 mph N/A   Mostly Cloudy
2:53 PM 45.0 °F 36.4 °F 17.1 °F 33% 29.67 in 10.0 mi West 23.0 mph 31.1 mph N/A   Scattered Clouds
3:53 PM 44.1 °F 35.2 °F 16.0 °F 32% 29.66 in 10.0 mi West 23.0 mph 32.2 mph N/A   Mostly Cloudy
4:53 PM 44.1 °F 35.9 °F 16.0 °F 32% 29.67 in 10.0 mi WNW 19.6 mph 27.6 mph N/A   Partly Cloudy
5:53 PM 42.1 °F 34.2 °F 16.0 °F 35% 29.68 in 10.0 mi West 16.1 mph 28.8 mph N/A   Partly Cloudy
6:53 PM 39.9 °F 31.8 °F 16.0 °F 38% 29.71 in 10.0 mi WNW 15.0 mph 28.8 mph N/A   Clear
7:53 PM 39.0 °F 31.0 °F 17.1 °F 41% 29.74 in 10.0 mi WNW 13.8 mph 21.9 mph N/A   Clear
8:53 PM 37.0 °F 29.8 °F 18.0 °F 46% 29.77 in 10.0 mi WNW 10.4 mph 18.4 mph N/A   Clear
9:53 PM 36.0 °F 29.6 °F 18.0 °F 48% 29.79 in 10.0 mi West 8.1 mph - N/A   Clear
10:53 PM 35.1 °F 27.9 °F 19.0 °F 52% 29.79 in 10.0 mi West 9.2 mph - N/A   Clear
11:53 PM 35.1 °F 27.4 °F 18.0 °F 50% 29.79 in 10.0 mi West 10.4 mph 20.7 mph N/A   Clear